Current Weather Conditions: station 62132

sailwx.info

Wind from 290 at 20 knots

Air temperature 5.7° C
Dewpoint 0.9° C

Last reported at 2020-Feb-18 23:00 UTC.
Time now 2020-Feb-19 00:47 UTC

Location: N 56°24' E 002°00'.
View on Google Maps.

See reports from other nearby stations

  
Tides and Currents Weather Stations Pressure Air Temp Water Temp Dewpoint Dewpoint Depression Visibility Wind Speed Wind Dir Waves Ship Positions
date/time (UTC)wind fromknots sea level pressurealtimeterstation pressurevisibilityair tempwater tempwave heightnotes
2020-Feb-18 23:00 290 20 5.7
2020-Feb-18 22:00 290 20 5.7
2020-Feb-18 21:00 280 12 5.5
2020-Feb-18 20:00 270 13 6.1
2020-Feb-18 19:00 260 14 6.6
2020-Feb-18 18:00 250 11 6.2
2020-Feb-18 17:00 250 18 6.8
2020-Feb-18 16:00 260 17 6.9
2020-Feb-18 15:00 260 20 6.8
2020-Feb-18 14:00 250 19 6.8
2020-Feb-18 13:00 260 19 6.6
2020-Feb-18 12:00 260 20 6.5
2020-Feb-18 11:00 260 20 6.4
2020-Feb-18 10:00 270 20 6.3
2020-Feb-18 09:00 270 20 6.2
2020-Feb-18 08:00 270 21 6.2
2020-Feb-18 07:00 270 22 6.2
2020-Feb-18 06:00 270 25 6.2
2020-Feb-18 05:00 280 25 6.1
2020-Feb-18 04:00 280 22 6.4
2020-Feb-18 03:00 280 24 6.4
2020-Feb-18 02:00 280 20 6.5
2020-Feb-18 01:00 270 20 6.3
2020-Feb-18 00:00 270 21 6.4
2020-Feb-17 23:00 260 24 6.3
2020-Feb-17 22:00 260 22 6.8
2020-Feb-17 21:00 270 25 7.0
2020-Feb-17 20:00 250 20 7.5
2020-Feb-17 19:00 250 18 7.9
2020-Feb-17 18:00 250 18 8.0
2020-Feb-17 17:00 260 20 8.1
2020-Feb-17 16:00 240 20 8.1
2020-Feb-17 15:00 240 19 8.0
2020-Feb-17 14:00 240 20 8.0
2020-Feb-17 12:00 240 21 7.8
2020-Feb-17 11:00 240 22 7.6
2020-Feb-17 10:00 240 25 7.4
2020-Feb-17 09:00 240 26 7.4
2020-Feb-17 08:00 240 27 7.4
2020-Feb-17 07:00 240 31 7.2
2020-Feb-17 06:00 240 29 7.3
2020-Feb-17 05:00 230 29 7.3
2020-Feb-17 04:00 240 32 7.2
2020-Feb-17 03:00 230 29 7.3
2020-Feb-17 02:00 230 28 7.2
2020-Feb-17 01:00 230 27 7.2
2020-Feb-17 00:00 240 25 7.3